Simultaneous Nadir Overpasses (SNOs) Predictions

Prediction of SNOs between LANDSAT-8 and NOAA-19 Satellite Orbit:

Table of predicted SNOs for the next 14.0 days since TLE Epoch: 11/4/2022
Index Date (LANDSAT-8) Time (LANDSAT-8) Lat,Lon (LANDSAT-8) SZA (LANDSAT-8 ) Date (NOAA-19) Time (NOAA-19) Lat,Lon (NOAA-19) SZA (NOAA-19 ) Distance(km) Time Diff (sec)
1 11/06/2022 10:00:32 -80.89,-113.46 80.99 11/06/2022 10:00:26 -80.88,-113.59 81.01 2.28 6
2 11/08/2022 15:34:15 80.88, -16.92 99.66 11/08/2022 15:33:19 80.89, -16.92 99.64 0.17 56
3 11/08/2022 16:23:42 -80.88, 150.67 80.34 11/08/2022 16:24:14 -80.88, 150.51 80.34 2.78 32
4 11/10/2022 21:57:24 80.89,-112.59 100.31 11/10/2022 21:57:06 80.88,-112.66 100.29 1.65 18
5 11/10/2022 22:46:51 -80.89, 55.02 79.69 11/10/2022 22:48:01 -80.88, 54.92 79.68 2.06 70
6 11/13/2022 04:20:33 80.89, 151.63 100.92 11/13/2022 04:20:53 80.88, 151.53 100.91 2.05 20
7 11/15/2022 09:54:16 -80.88,-111.94 78.54 11/15/2022 09:53:38 -80.89,-111.90 78.55 0.82 38
8 11/15/2022 10:43:42 80.89, 55.72 101.48 11/15/2022 10:44:40 80.88, 55.65 101.49 1.24 58



Historial Predications of SNOs between LANDSAT-8 and NOAA-19
